This is the latest recevied weather packets stored in our database for station/object W8DRH-13. If no packets are shown the sender has not sent any weather packets the latest 10 day(s).
| Time | Temp. | Humidity | Pressure | Rain* | Wind** | Luminosity | Snow |
|---|---|---|---|---|---|---|---|
| 1777919244 | 21.67° C | 57% | 1003.7 hPa | 0 mm | - | 676 W/m² | - |
| 1777918941 | 21.67° C | 57% | 1003.8 hPa | 0 mm | - | 765 W/m² | - |
| 1777918639 | 21.67° C | 58% | 1003.7 hPa | 0 mm | - | 815 W/m² | - |
| 1777918336 | 22.22° C | 57% | 1003.8 hPa | 0 mm | - | 268 W/m² | - |
| 1777918035 | 21.67° C | 59% | 1003.9 hPa | 0 mm | - | 780 W/m² | - |
| 1777917733 | 21.67° C | 59% | 1004.3 hPa | 0 mm | - | 764 W/m² | - |
| 1777917430 | 21.11° C | 58% | 1003.9 hPa | 0 mm | - | 738 W/m² | - |
| 1777917127 | 21.11° C | 58% | 1004.3 hPa | 0 mm | - | 724 W/m² | - |
| 1777916825 | 21.11° C | 59% | 1004.2 hPa | 0 mm | - | 691 W/m² | - |
| 1777916523 | 21.11° C | 60% | 1004.2 hPa | 0 mm | - | 698 W/m² | - |
| 1777916219 | 20.56° C | 59% | 1004.2 hPa | 0 mm | - | 719 W/m² | - |
| 1777915916 | 20.56° C | 61% | 1004.2 hPa | 0 mm | - | 705 W/m² | - |
| 1777915612 | 20.56° C | 58% | 1004.3 hPa | 0 mm | - | 708 W/m² | - |
| 1777915309 | 20.56° C | 60% | 1004.4 hPa | 0 mm | - | 704 W/m² | - |
| 1777915005 | 20.56° C | 60% | 1004.5 hPa | 0 mm | - | 709 W/m² | - |
| 1777914703 | 20° C | 60% | 1004.5 hPa | 0 mm | - | 675 W/m² | - |
| 1777914399 | 20° C | 61% | 1004.6 hPa | 0 mm | - | 698 W/m² | - |
| 1777914097 | 20° C | 60% | 1004.5 hPa | 0 mm | - | 735 W/m² | - |
| 1777913792 | 19.44° C | 62% | 1004.6 hPa | 0 mm | - | 736 W/m² | - |
| 1777913489 | 19.44° C | 61% | 1004.7 hPa | 0 mm | - | 735 W/m² | - |
| 1777913186 | 19.44° C | 62% | 1004.8 hPa | 0 mm | - | 727 W/m² | - |
| 1777912882 | 19.44° C | 62% | 1004.9 hPa | 0 mm | - | 718 W/m² | - |
| 1777912579 | 19.44° C | 62% | 1005.1 hPa | 0 mm | - | 726 W/m² | - |
| 1777912275 | 18.89° C | 62% | 1005.1 hPa | 0 mm | - | 731 W/m² | - |
| 1777911971 | 19.44° C | 62% | 1005.1 hPa | 0 mm | - | 736 W/m² | - |
* Rain latest hour (hover to see other rain measurements)
** Current wind speed in m/s (hover to see current wind gust speed)